This is the latest recevied weather packets stored in our database for station/object KB9HUO. If no packets are shown the sender has not sent any weather packets the latest 1 day(s).
| Time | Temp. | Humidity | Pressure | Rain* | Wind** | Luminosity | Snow |
|---|---|---|---|---|---|---|---|
| 1778030199 | 11.11° C | 97% | 1008.1 hPa | 1.27 mm | 0 m/s | 0 W/m² | - |
| 1778029895 | 11.11° C | 97% | 1008.1 hPa | 6.6 mm | 0 m/s | 0 W/m² | - |
| 1778029594 | 11.11° C | 97% | 1008.2 hPa | 15.49 mm | 0.45 m/s, 287° | 0 W/m² | - |
| 1778029291 | 11.11° C | 97% | 1007.5 hPa | 11.94 mm | 1.34 m/s, 9° | 0 W/m² | - |
| 1778028988 | 11.11° C | 97% | 1009 hPa | 3.05 mm | 0 m/s | 0 W/m² | - |
| 1778028684 | 11.11° C | 97% | 1008.4 hPa | 6.6 mm | 0 m/s | 0 W/m² | - |
| 1778028381 | 11.11° C | 97% | 1008.4 hPa | 7.87 mm | 0.89 m/s, 325° | 0 W/m² | - |
| 1778028078 | 11.11° C | 97% | 1008.4 hPa | 7.87 mm | 0.45 m/s, 282° | 0 W/m² | - |
| 1778027774 | 11.11° C | 97% | 1008 hPa | 16.76 mm | 0.45 m/s, 292° | 1 W/m² | - |
| 1778027470 | 11.11° C | 97% | 1008 hPa | 19.81 mm | 0.45 m/s, 294° | 1 W/m² | - |
| 1778027166 | 11.11° C | 97% | 1008.2 hPa | 10.67 mm | 1.34 m/s, 15° | 2 W/m² | - |
| 1778026862 | 11.67° C | 97% | 1008.5 hPa | 7.11 mm | 0.45 m/s, 285° | 0 W/m² | - |
| 1778026559 | 11.67° C | 96% | 1008.1 hPa | 8.89 mm | 0.89 m/s, 326° | 1 W/m² | - |
| 1778026256 | 12.22° C | 96% | 1008.2 hPa | 6.6 mm | 0.89 m/s, 273° | 2 W/m² | - |
| 1778025953 | 12.78° C | 97% | 1008.2 hPa | 3.05 mm | 0.89 m/s, 267° | 1 W/m² | - |
| 1778025651 | 12.78° C | 97% | 1007.9 hPa | 1.27 mm | 0.89 m/s, 325° | 1 W/m² | - |
| 1778025349 | 13.33° C | 97% | 1007.6 hPa | 1.78 mm | 0 m/s | 1 W/m² | - |
| 1778025045 | 13.33° C | 97% | 1007.6 hPa | 3.05 mm | 0.45 m/s, 328° | 2 W/m² | - |
| 1778024742 | 13.33° C | 97% | 1007.7 hPa | 3.05 mm | 0 m/s | 4 W/m² | - |
| 1778024439 | 13.89° C | 97% | 1007.6 hPa | 10.67 mm | 0.89 m/s, 308° | 5 W/m² | - |
| 1778024136 | 15° C | 96% | 1007.6 hPa | 13.72 mm | 0.89 m/s, 311° | 4 W/m² | - |
| 1778023834 | 16.11° C | 97% | 1007.6 hPa | 7.87 mm | 1.34 m/s, 302° | 5 W/m² | - |
| 1778023532 | 16.11° C | 97% | 1007.4 hPa | 3.05 mm | 0 m/s | 5 W/m² | - |
| 1778023229 | 16.11° C | 97% | 1007.2 hPa | 4.83 mm | 0 m/s | 5 W/m² | - |
| 1778022925 | 16.11° C | 97% | 1007.1 hPa | 3.05 mm | 0 m/s | 5 W/m² | - |
* Rain latest hour (hover to see other rain measurements)
** Current wind speed in m/s (hover to see current wind gust speed)